Portada
METAR-TAF:

METAR-TAF

Aeroports :

Batesville, Arkansas, Estats Units d'Amèrica

latitud: 35-44N, longitud: 091-39W, altitud: 141 m

Observació

L'informe es va fer fa 56 minuts, a les 20:56 UTC
Vent 4 kt del Oest
Temperatura 32°C
Humitat 56%
Pressió 1017 hPa
Visibilitat: 16.1 km
Cel clar

METAR: KBVX 102056Z AUTO 27004KT 10SM CLR 32/22 A3002 RMK AO2 SLP163 T03170222 58008

Hora: 16:52 (21:52 UTC)


TAF: manca

Observacions i pronòstics meteorològics de més de 4000 aeroports (METAR i TAF).

Les estacions disponibles són els punts grocs i vermells al mapa.

Posi el ratolí al punt desitjat per veure el nom de l'estació.

Feu clic per veure les observacions i els pronòstics meteorològics.

Per canviar el mapa: feu clic els botons verds amb una creu de color negre per apropar; al botó verd amb un guió per allunyar la imatge; o en les fletxes verdes per a mapes adjacents.


METAR-TAF: